Date String (YYYY-MM-DD hh:mm:ss) UTC,Instrument flags,absolute air pressure of the measurement (hPa),sample flow rate (lpm),inlet stack bypass flow (lpm),air temperature of the measurement (°C),ambient temperature measured by the external sensor (°C),aerosol sample conditioner tube jacket temperature (°C),OPC LED temperature (°C),internal box temperature (°C),relative humidity of the measurement (%),span deviation,mass concentration of particles derived from Lorenz-Mie calculation of OPC scattering (μg/m³),mass concentration of particles derived from Lorenz-Mie calculation of OPC scattering (μg/m³),mass concentration of particles derived from Lorenz-Mie calculation of OPC scattering (μg/m³)
DateTimeUTC,F1_M11,P_M11,Q1_M11,Q2_M11,T1_M11,T2_M11,T3_M11,T4_M11,T5_M11,U1_M11,ZSPAN_M11,X0_M11,X2_M11,X1_M11
2024-03-19 16:00:00,SystemResetWarning,0830.3,5.00,000.00,019.3,018.9,000.0,027.5,021.0,19.1,0000.0,0008.20,0002.37,0001.06
2024-03-19 16:01:00,SystemResetWarning,0830.3,5.00,000.00,019.3,018.9,000.0,027.5,021.0,18.8,0000.0,0008.17,0002.35,0001.05
2024-03-19 16:02:00,SystemResetWarning,0830.3,5.00,000.00,019.3,018.9,000.0,027.5,021.1,18.7,0000.0,0008.11,0002.32,0001.04
2024-03-19 16:03:00,SystemResetWarning,0830.3,5.00,000.00,019.3,019.0,000.0,027.5,021.1,19.1,0000.0,0008.01,0002.26,0001.03
2024-03-19 16:04:00,SystemResetWarning,0830.2,5.00,000.00,019.3,019.0,000.0,027.5,021.1,19.8,0000.0,0008.04,0002.30,0001.04
2024-03-19 16:05:00,SystemResetWarning,0830.3,5.00,000.00,019.4,019.0,000.0,027.6,021.1,20.4,0000.0,0008.00,0002.33,0001.06
2024-03-19 16:06:00,SystemResetWarning,0830.3,5.00,000.00,019.4,019.0,000.0,027.6,021.1,20.2,0000.0,0007.47,0002.38,0001.07
2024-03-19 16:07:00,SystemResetWarning,0830.3,5.00,000.00,019.4,019.0,000.0,027.6,021.1,19.5,0000.0,0007.42,0002.47,0001.08
2024-03-19 16:08:00,SystemResetWarning,0830.2,5.00,000.00,019.4,019.0,000.0,027.6,021.1,19.1,0000.0,0007.42,0002.41,0001.08
2024-03-19 16:09:00,SystemResetWarning,0830.2,4.99,000.00,019.4,019.1,000.0,027.6,021.1,19.8,0000.0,0007.43,0002.42,0001.08
2024-03-19 16:10:00,SystemResetWarning,0830.2,5.01,000.00,019.4,019.1,000.0,027.7,021.2,19.5,0000.0,0007.47,0002.44,0001.09
2024-03-19 16:11:00,SystemResetWarning,0830.3,5.01,000.00,019.5,019.1,000.0,027.7,021.2,20.4,0000.0,0007.56,0002.42,0001.09
2024-03-19 16:12:00,SystemResetWarning,0830.2,5.00,000.00,019.5,019.1,000.0,027.7,021.2,20.8,0000.0,0007.63,0002.43,0001.09
2024-03-19 16:13:00,SystemResetWarning,0830.2,5.00,000.00,019.5,019.1,000.0,027.7,021.2,20.6,0000.0,0007.26,0002.45,0001.10
2024-03-19 16:14:00,SystemResetWarning,0830.2,5.00,000.00,019.5,019.1,000.0,027.7,021.2,20.4,0000.0,0007.30,0002.48,0001.11
2024-03-19 16:15:00,SystemResetWarning,0830.2,5.00,000.00,019.5,019.2,000.0,027.7,021.3,20.5,0000.0,0007.42,0002.47,0001.13
2024-03-19 16:16:00,SystemResetWarning,0830.2,5.00,000.00,019.5,019.2,000.0,027.8,021.3,21.1,0000.0,0007.45,0002.47,0001.14
2024-03-19 16:17:00,SystemResetWarning,0830.2,5.00,000.00,019.6,019.2,000.0,027.8,021.3,21.2,0000.0,0007.31,0002.46,0001.15
2024-03-19 16:18:00,SystemResetWarning,0830.2,5.00,000.00,019.6,019.2,000.0,027.8,021.3,21.3,0000.0,0007.06,0002.44,0001.16
2024-03-19 16:19:00,SystemResetWarning,0830.2,5.00,000.00,019.6,019.2,000.0,027.8,021.3,20.4,0000.0,0006.92,0002.48,0001.17
2024-03-19 16:20:00,SystemResetWarning,0830.2,5.00,000.00,019.6,019.2,000.0,027.8,021.3,21.0,0000.0,0006.79,0002.50,0001.19
2024-03-19 16:21:00,SystemResetWarning,0830.3,5.00,000.00,019.6,019.3,000.0,027.8,021.4,21.0,0000.0,0006.36,0002.49,0001.21
2024-03-19 16:22:00,SystemResetWarning,0830.3,5.00,000.00,019.6,019.3,000.0,027.8,021.4,21.5,0000.0,0006.39,0002.55,0001.21
2024-03-19 16:23:00,SystemResetWarning,0830.3,5.00,000.00,019.7,019.3,000.0,027.9,021.4,21.2,0000.0,0006.49,0002.55,0001.23
2024-03-19 16:24:00,SystemResetWarning,0830.3,5.00,000.00,019.7,019.3,000.0,027.9,021.4,20.9,0000.0,0006.75,0002.55,0001.25
2024-03-19 16:25:00,SystemResetWarning,0830.2,5.00,000.00,019.7,019.3,000.0,027.9,021.4,20.5,0000.0,0007.15,0002.64,0001.24
2024-03-19 16:26:00,SystemResetWarning,0830.2,5.00,000.00,019.7,019.4,000.0,027.9,021.5,20.4,0000.0,0007.23,0002.66,0001.23
2024-03-19 16:27:00,SystemResetWarning,0830.2,4.99,000.00,019.7,019.4,000.0,027.9,021.5,21.4,0000.0,0007.12,0002.61,0001.22
2024-03-19 16:28:00,SystemResetWarning,0830.2,4.99,000.00,019.7,019.4,000.0,028.0,021.5,21.9,0000.0,0007.30,0002.65,0001.22
2024-03-19 16:29:00,SystemResetWarning,0830.2,5.00,000.00,019.8,019.4,000.0,028.0,021.5,21.5,0000.0,0007.89,0002.64,0001.21
2024-03-19 16:30:00,SystemResetWarning,0830.3,5.00,000.00,019.8,019.4,000.0,028.0,021.5,20.9,0000.0,0008.02,0002.73,0001.23
2024-03-19 16:31:00,SystemResetWarning,0830.2,5.01,000.00,019.8,019.4,000.0,028.0,021.5,21.2,0000.0,0008.22,0002.78,0001.23
2024-03-19 16:32:00,SystemResetWarning,0830.2,5.01,000.00,019.8,019.5,000.0,028.0,021.6,20.8,0000.0,0008.63,0002.87,0001.23
2024-03-19 16:33:00,SystemResetWarning,0830.2,4.99,000.00,019.8,019.5,000.0,028.0,021.6,20.5,0000.0,0008.68,0002.86,0001.25
2024-03-19 16:34:00,SystemResetWarning,0830.2,4.99,000.00,019.9,019.5,000.0,028.1,021.6,20.4,0000.0,0008.47,0002.87,0001.25
2024-03-19 16:35:00,SystemResetWarning,0830.2,5.00,000.00,019.9,019.5,000.0,028.1,021.6,20.1,0000.0,0008.11,0002.91,0001.24
2024-03-19 16:36:00,SystemResetWarning,0830.2,5.01,000.00,019.9,019.5,000.0,028.1,021.6,17.9,0000.0,0008.15,0002.95,0001.24
2024-03-19 16:37:00,SystemResetWarning,0830.1,5.00,000.00,019.9,019.5,000.0,028.1,021.7,17.1,0000.0,0007.93,0002.90,0001.23
2024-03-19 16:38:00,SystemResetWarning,0830.1,5.01,000.00,019.9,019.6,000.0,028.1,021.7,17.9,0000.0,0007.85,0002.86,0001.22
2024-03-19 16:39:00,SystemResetWarning,0830.2,5.00,000.00,019.9,019.6,000.0,028.1,021.7,18.4,0000.0,0007.84,0002.82,0001.20
2024-03-19 16:40:00,SystemResetWarning,0830.1,4.99,000.00,020.0,019.6,000.0,028.2,021.7,17.8,0000.0,0007.15,0002.82,0001.19
2024-03-19 16:41:00,SystemResetWarning,0830.1,4.99,000.00,020.0,019.6,000.0,028.2,021.7,17.8,0000.0,0006.83,0002.74,0001.18
2024-03-19 16:42:00,SystemResetWarning,0830.1,5.00,000.00,020.0,019.6,000.0,028.2,021.7,18.4,0000.0,0006.64,0002.68,0001.16
2024-03-19 16:43:00,SystemResetWarning,0830.1,5.01,000.00,020.0,019.7,000.0,028.2,021.8,18.2,0000.0,0006.71,0002.69,0001.16
2024-03-19 16:44:00,SystemResetWarning,0830.1,5.00,000.00,020.0,019.7,000.0,028.2,021.8,18.3,0000.0,0007.21,0002.69,0001.16
2024-03-19 16:45:00,SystemResetWarning,0830.1,4.99,000.00,020.1,019.7,000.0,028.2,021.8,18.5,0000.0,0007.81,0002.70,0001.16
2024-03-19 16:46:00,SystemResetWarning,0830.1,4.99,000.00,020.1,019.7,000.0,028.3,021.8,19.0,0000.0,0008.26,0002.71,0001.16
2024-03-19 16:47:00,SystemResetWarning,0830.1,5.00,000.00,020.1,019.7,000.0,028.3,021.8,18.9,0000.0,0008.70,0002.68,0001.17
2024-03-19 16:48:00,SystemResetWarning,0830.1,5.00,000.00,020.1,019.8,000.0,028.3,021.9,18.7,0000.0,0009.06,0002.67,0001.20
2024-03-19 16:49:00,SystemResetWarning,0830.1,5.00,000.00,020.1,019.8,000.0,028.3,021.9,18.8,0000.0,0009.26,0002.75,0001.23
2024-03-19 16:50:00,SystemResetWarning,0830.1,5.00,000.00,020.1,019.8,000.0,028.3,021.9,18.9,0000.0,0009.68,0002.83,0001.25
2024-03-19 16:51:00,SystemResetWarning,0830.2,5.00,000.00,020.2,019.8,000.0,028.3,021.9,19.0,0000.0,0009.69,0002.81,0001.26
2024-03-19 16:52:00,SystemResetWarning,0830.2,5.00,000.00,020.2,019.8,000.0,028.4,021.9,19.1,0000.0,0009.87,0002.90,0001.28
2024-03-19 16:53:00,SystemResetWarning,0830.2,5.00,000.00,020.2,019.8,000.0,028.4,021.9,19.1,0000.0,0010.15,0002.90,0001.29
2024-03-19 16:54:00,SystemResetWarning,0830.3,5.00,000.00,020.2,019.9,000.0,028.4,022.0,19.0,0000.0,0010.44,0002.88,0001.29
2024-03-19 16:55:00,SystemResetWarning,0830.2,5.00,000.00,020.2,019.9,000.0,028.4,022.0,19.3,0000.0,0009.84,0002.83,0001.28
2024-03-19 16:56:00,SystemResetWarning,0830.2,5.00,000.00,020.3,019.9,000.0,028.4,022.0,19.6,0000.0,0009.48,0002.82,0001.28
2024-03-19 16:57:00,SystemResetWarning,0830.2,5.01,000.00,020.3,019.9,000.0,028.5,022.0,19.9,0000.0,0009.04,0002.91,0001.29
2024-03-19 16:58:00,SystemResetWarning,0830.2,5.00,000.00,020.3,019.9,000.0,028.5,022.0,19.4,0000.0,0008.72,0002.95,0001.29
2024-03-19 16:59:00,SystemResetWarning,0830.3,4.99,000.00,020.3,020.0,000.0,028.5,022.1,18.7,0000.0,0008.33,0002.95,0001.29
